[[[{"header":{"parameterUnit":"kt","parameterCategory":2,"dx":1,"dy":1,"la1":30.253999710083008,"la2":30.299108505249023,"lo1":-89.0895004272461,"lo2":-89.04439544677734,"nx":28,"ny":28,"refTime":"2022-10-08T21:00:00:Z","depth":0,"parameterNumber":1,"parameterNumberName":"U-component_of_WINDS"},"data":[-3.4449,-3.4545,-3.4529,-3.463,-3.4633,-3.4699,-3.4717,-3.4739,-3.4752,-3.4828,-3.4868,-3.4861,-3.4866,-3.4909,-3.4951,-3.4946,-3.4966,-3.5012,-3.4998,-3.4807,-3.478,-3.4753,-3.473,-3.5016,-3.5017,-3.5199,-3.5201,-3.5202,-3.431,-3.4314,-3.4364,-3.44,-3.4441,-3.4387,-3.4411,-3.4449,-3.4509,-3.4526,-3.4564,-3.463,-3.4678,-3.4667,-3.4711,-3.4754,-3.473,-3.4767,-3.4764,-3.4765,-3.456,-3.4536,-3.4785,-3.4785,-3.4785,-3.4785,-3.4785,-3.4785,-3.4055,-3.4113,-3.4125,-3.4178,-3.4191,-3.4216,-3.4268,-3.4257,-3.4304,-3.4348,-3.4318,-3.4385,-3.4397,-3.4441,-3.4451,-3.4502,-3.4458,-3.4492,-3.4501,-3.451,-3.4524,-3.4264,-3.4508,-3.4507,-3.4507,-3.4506,-3.4505,0,-3.3862,-3.3845,-3.389,-3.3931,-3.3968,-3.3998,-3.4022,-3.4054,-3.4009,-3.4049,-3.4106,-3.4136,-3.4194,-3.4244,-3.4281,-3.4283,-3.423,-3.4222,-3.4246,-3.4263,-3.4273,-3.427,-3.3937,-3.4216,-3.4213,-3.4211,-3.421,-3.4209,-3.3603,-3.3673,-3.3677,-3.3711,-3.372,-3.3776,-3.3805,-3.376,-3.3793,-3.3815,-3.3868,-3.3919,-3.3957,-3.4049,-3.4034,-3.4077,-3.4052,-3.416,-3.4058,-3.4071,-3.4054,-3.4051,-3.4058,-3.4182,-3.4185,-3.4188,-3.419,0,-3.3459,-3.3431,-3.3533,-3.353,-3.3531,-3.3606,-3.3602,-3.3658,-3.364,-3.3714,-3.3728,-3.3701,-3.3757,-3.3724,-3.3781,-3.3762,-3.3884,-3.3857,-3.3879,-3.3873,-3.3967,-3.3959,-3.4278,-3.4317,-3.4019,-3.4022,-3.4025,0,-3.3228,-3.3321,-3.3273,-3.3334,-3.3435,-3.3386,-3.3488,-3.3483,-3.3492,-3.3549,-3.3483,-3.3539,-3.3487,-3.3538,-3.351,-3.3603,-3.3614,-3.3605,-3.3596,-3.3612,-3.3613,-3.3629,-3.3615,-3.3574,-3.3572,-3.3571,-3.3569,0,-3.3006,-3.3088,-3.3187,-3.3201,-3.3206,-3.3253,-3.3257,-3.3266,-3.3296,-3.3327,-3.3346,-3.3386,-3.3409,-3.3441,-3.3405,-3.3337,-3.3518,-3.3417,-3.3509,-3.351,-3.3552,-3.355,-3.3839,-3.3567,-3.3567,-3.3566,-3.3566,0,-3.2814,-3.2849,-3.2995,-3.2998,-3.3021,-3.3085,-3.3122,-3.317,-3.3184,-3.3171,-3.3195,-3.3147,-3.3226,-3.3128,-3.3235,-3.3157,-3.3183,-3.3181,-3.3187,-3.3193,-3.3084,-3.3253,-3.3532,-3.356,-3.3197,-3.3194,-3.3191,0,-3.2569,-3.2709,-3.2668,-3.2808,-3.2868,-3.279,-3.286,-3.2875,-3.2863,-3.2911,-3.2896,-3.2952,-3.2872,-3.2884,-3.2942,-3.2929,-3.3031,-3.2914,-3.2984,-3.2988,-3.2984,-3.324,-3.329,-3.3474,-3.3151,-3.3155,-3.3158,0,-3.2375,-3.238,-3.2408,-3.2422,-3.2435,-3.2484,-3.2565,-3.2609,-3.2643,-3.2667,-3.2733,-3.2809,-3.2752,-3.2774,-3.2739,-3.28,-3.2961,-3.273,-3.273,-3.2774,-3.3128,-3.3176,-3.3207,-3.2923,-3.2928,-3.2932,-3.3127,0,-3.2094,-3.2159,-3.2233,-3.2266,-3.2299,-3.2384,-3.2349,-3.2387,-3.235,-3.2335,-3.2432,-3.2435,-3.2479,-3.2505,-3.2469,-3.2621,-3.259,-3.2528,-3.2431,-3.2599,-3.2662,-3.2688,-3.234,-3.2336,-3.2334,-3.2332,0,0,-3.1866,-3.1959,-3.1912,-3.1989,-3.2013,-3.1931,-3.2025,-3.2039,-3.207,-3.2089,-3.2034,-3.2143,-3.2148,-3.2269,-3.2318,-3.2336,-3.236,-3.2303,-3.2519,-3.254,-3.256,-3.2628,-3.2656,-3.2327,-3.2326,-3.2325,-3.2324,0,-3.1756,-3.1764,-3.1858,-3.187,-3.1887,-3.1867,-3.1889,-3.1891,-3.1886,-3.198,-3.191,-3.1963,-3.2051,-3.2066,-3.2085,-3.2287,-3.2231,-3.2303,-3.2424,-3.2494,-3.2519,-3.254,-3.2613,-3.2639,-3.2318,-3.2319,-3.2319,0,-3.156,-3.1561,-3.1603,-3.1655,-3.1665,-3.1728,-3.1617,-3.1689,-3.1735,-3.164,-3.1735,-3.1732,-3.1748,-3.1866,-3.1918,-3.187,-3.2117,-3.2032,-3.2047,-3.2052,-3.2119,-3.2148,-3.2175,-3.1829,-3.1827,-3.1826,0,0,-3.1469,-3.153,-3.1517,-3.1629,-3.164,-3.161,-3.164,-3.1606,-3.1623,-3.163,-3.1624,-3.1643,-3.1693,-3.1727,-3.1773,-3.1908,-3.1907,-3.1973,-3.1996,-3.2015,-3.2031,-3.2102,-3.2131,-3.182,-3.182,-3.1819,0,0,-3.1426,-3.1416,-3.1376,-3.1501,-3.1519,-3.1513,-3.1583,-3.1533,-3.157,-3.1556,-3.1502,-3.1504,-3.1614,-3.1614,-3.154,-3.1737,-3.1642,-3.1659,-3.1734,-3.1762,-3.1785,-3.1783,-3.1426,0,0,0,0,0,-3.1296,-3.1417,-3.1381,-3.1396,-3.1461,-3.1534,-3.1541,-3.15,-3.1433,-3.1489,-3.1476,-3.1414,-3.1563,-3.1495,-3.1512,-3.1595,-3.1744,-3.1757,-3.177,-3.1899,-3.1929,-3.1954,0,0,0,0,0,0,-3.1301,-3.1321,-3.1377,-3.1377,-3.1391,-3.1529,-3.1406,-3.1398,-3.1426,-3.1413,-3.1419,-3.1415,-3.138,-3.1484,-3.1499,-3.158,-3.1421,-3.1749,-3.1761,-3.1771,-3.1909,-3.1934,-3.1955,0,0,0,0,0,-3.1306,-3.1321,-3.1437,-3.1375,-3.1388,-3.1361,-3.1402,-3.1394,-3.1414,-3.1395,-3.1389,-3.138,-3.1383,-3.1393,-3.1493,-3.1574,-3.141,-3.1416,-3.1757,-3.1766,-3.1774,-3.1921,0,0,0,0,0,0,-3.1309,-3.1314,-3.1438,-3.1441,-3.1326,-3.1352,-3.1355,-3.139,-3.1394,-3.1389,-3.1353,-3.1343,-3.1387,-3.1394,-3.1402,-3.1575,-3.1402,-3.1407,-3.1411,-3.1764,-3.1771,-3.1777,0,0,0,0,0,0,-3.1306,-3.1317,-3.1439,-3.138,-3.1375,-3.1345,-3.1347,-3.1425,-3.1395,-3.1351,-3.1343,-3.1349,-3.1375,-3.1396,-3.1401,-3.1525,-3.1395,-3.14,-3.1404,-3.1407,-3.1769,-3.1775,0,0,0,0,0,0,-3.131,-3.1319,-3.1379,-3.1375,-3.1371,-3.1391,-3.1413,-3.1482,-3.1345,-3.1352,-3.1331,-3.1325,-3.1378,-3.1383,-3.1401,-3.1523,-3.1525,-3.1395,-3.1399,-3.1402,-3.1403,0,0,0,0,0,0,0,-3.1313,-3.1259,-3.1426,-3.1372,-3.1367,-3.1461,-3.1461,-3.1462,-3.1344,-3.1338,-3.1333,-3.1328,-3.1362,-3.1369,-3.1375,-3.1522,0,0,-3.1394,-3.1397,0,0,0,0,0,0,0,0,-3.1254,-3.1258,-3.1426,-3.1426,-3.1427,-3.1461,-3.1461,-3.1462,-3.1343,-3.1338,-3.1334,-3.133,-3.1364,-3.1369,-3.1374,0,0,0,0,0,0,0,0,0,0,0,0,0,0,0,-3.1426,-3.1426,0,-3.1461,-3.1461,-3.1461,-3.1342,-3.1338,-3.1335,-3.1331,-3.1366,-3.137,-3.1374,0,0,0,0,0,0,0,0,0,0,0,0,0,0,0,0,0,0,0,0,0,0,0,0,0,0,0,0,0,0,0,0,0,0,0,0,0,0,0,0,0,0,0,0,0,0,0,0,0,0,0,0,0,0,0,0,0,0,0,0,0,0,0,0,0,0,0,0,0]}],[{"header":{"parameterUnit":"kt","parameterCategory":2,"dx":1,"dy":1,"la1":30.253999710083008,"la2":30.299108505249023,"lo1":-89.0895004272461,"lo2":-89.04439544677734,"nx":28,"ny":28,"refTime":"2022-10-08T21:00:00:Z","depth":0,"parameterNumber":2,"parameterNumberName":"V-component_of_WINDS"},"data":[-8.101,-8.118,-8.1202,-8.1403,-8.1455,-8.1595,-8.1651,-8.1725,-8.1787,-8.1953,-8.205,-8.2084,-8.215,-8.2268,-8.2371,-8.2382,-8.2424,-8.2471,-8.2476,-8.2254,-8.2224,-8.2195,-8.2158,-8.2481,-8.2481,-8.2704,-8.2706,-8.2707,-8.0847,-8.0903,-8.1016,-8.1139,-8.1235,-8.1203,-8.1296,-8.1377,-8.1502,-8.1579,-8.1676,-8.1821,-8.1937,-8.1986,-8.2099,-8.2174,-8.2163,-8.2203,-8.2197,-8.2207,-8.197,-8.1931,-8.2211,-8.2211,-8.2211,-8.221,-8.221,-8.221,-8.0557,-8.0658,-8.0745,-8.0868,-8.0934,-8.1015,-8.1113,-8.1154,-8.1261,-8.1385,-8.1384,-8.1522,-8.16,-8.1742,-8.1792,-8.1898,-8.1855,-8.1903,-8.1915,-8.1927,-8.1939,-8.1615,-8.1918,-8.1917,-8.1916,-8.1915,-8.1915,0,-8.035,-8.0361,-8.047,-8.0586,-8.0676,-8.0766,-8.0851,-8.0911,-8.0933,-8.102,-8.1147,-8.1222,-8.1369,-8.1487,-8.1594,-8.1636,-8.1606,-8.1604,-8.1637,-8.164,-8.163,-8.1637,-8.1249,-8.1594,-8.1592,-8.159,-8.1588,-8.1587,-8.0058,-8.0173,-8.0272,-8.0346,-8.0397,-8.0515,-8.0589,-8.06,-8.0676,-8.0779,-8.0865,-8.0984,-8.108,-8.1275,-8.1314,-8.1422,-8.1407,-8.1537,-8.1422,-8.1422,-8.1408,-8.1401,-8.1412,-8.1558,-8.1562,-8.1565,-8.1568,0,-7.9891,-7.9923,-8.0106,-8.0191,-8.0216,-8.0334,-8.0404,-8.0503,-8.0529,-8.0668,-8.07,-8.074,-8.0862,-8.088,-8.102,-8.1026,-8.1216,-8.1199,-8.119,-8.1187,-8.1305,-8.1294,-8.1686,-8.1737,-8.1403,-8.1407,-8.1409,0,-7.9653,-7.9802,-7.984,-7.9945,-8.0111,-8.0118,-8.0281,-8.0319,-8.0387,-8.0496,-8.0467,-8.0569,-8.0576,-8.068,-8.0688,-8.0846,-8.0872,-8.0885,-8.0885,-8.0888,-8.0886,-8.0924,-8.0908,-8.0881,-8.0879,-8.0877,-8.0876,0,-7.9388,-7.9582,-7.9753,-7.9802,-7.9905,-7.9984,-8.0029,-8.0104,-8.0175,-8.0268,-8.0313,-8.042,-8.0478,-8.056,-8.0569,-8.0491,-8.0763,-8.0657,-8.0776,-8.0776,-8.0833,-8.0829,-8.1174,-8.0873,-8.0873,-8.0872,-8.0871,0,-7.9199,-7.9299,-7.9541,-7.9626,-7.9676,-7.9787,-7.9895,-7.9995,-8.0075,-8.0089,-8.0161,-8.0142,-8.0283,-8.0176,-8.0369,-8.0264,-8.0322,-8.0347,-8.0356,-8.0368,-8.0248,-8.0439,-8.0767,-8.0801,-8.0381,-8.0377,-8.0374,0,-7.8887,-7.914,-7.9148,-7.9377,-7.9496,-7.9457,-7.9579,-7.9652,-7.968,-7.9782,-7.981,-7.9925,-7.985,-7.9887,-7.9981,-8.0013,-8.0149,-7.9996,-8.0137,-8.0142,-8.0118,-8.042,-8.0464,-8.0693,-8.0322,-8.0327,-8.0331,0,-7.8648,-7.8774,-7.8815,-7.887,-7.897,-7.9068,-7.9209,-7.9326,-7.9394,-7.9477,-7.9594,-7.9755,-7.9704,-7.9767,-7.9761,-7.9857,-8.0057,-7.9789,-7.979,-7.9836,-8.0297,-8.0338,-8.0377,-8.0032,-8.0038,-8.0043,-8.029,0,-7.8355,-7.8485,-7.8595,-7.8718,-7.8797,-7.8941,-7.8963,-7.9042,-7.9031,-7.9057,-7.9227,-7.9288,-7.9403,-7.9451,-7.9439,-7.9654,-7.962,-7.9563,-7.9459,-7.9657,-7.9739,-7.9772,-7.9336,-7.9333,-7.9331,-7.9329,0,0,-7.8048,-7.8234,-7.8238,-7.8376,-7.8443,-7.8399,-7.855,-7.8608,-7.8727,-7.8773,-7.8716,-7.8952,-7.9003,-7.9207,-7.927,-7.9316,-7.9356,-7.9285,-7.9563,-7.9589,-7.9613,-7.97,-7.9735,-7.9324,-7.9323,-7.9322,-7.9322,0,-7.7946,-7.8007,-7.8158,-7.822,-7.8313,-7.8333,-7.8369,-7.8451,-7.8473,-7.8641,-7.8598,-7.8702,-7.8889,-7.8949,-7.9004,-7.9262,-7.9221,-7.9295,-7.9428,-7.9537,-7.9567,-7.9593,-7.9684,-7.9717,-7.9315,-7.9316,-7.9316,0,-7.7714,-7.7777,-7.7853,-7.8004,-7.8063,-7.8184,-7.8082,-7.8215,-7.8304,-7.8242,-7.8409,-7.8445,-7.8526,-7.8716,-7.8802,-7.8751,-7.9098,-7.8991,-7.9007,-7.9016,-7.9123,-7.9158,-7.9189,-7.8775,-7.8773,-7.8771,0,0,-7.7622,-7.7742,-7.781,-7.7983,-7.8024,-7.8055,-7.8121,-7.8117,-7.8193,-7.8224,-7.8269,-7.8342,-7.8451,-7.8522,-7.8624,-7.8831,-7.8846,-7.8924,-7.8949,-7.897,-7.8991,-7.9102,-7.9137,-7.8763,-7.8763,-7.8763,0,0,-7.7576,-7.7664,-7.764,-7.7843,-7.792,-7.7995,-7.8099,-7.8069,-7.8164,-7.8149,-7.8143,-7.8162,-7.834,-7.8376,-7.8276,-7.8587,-7.8483,-7.8507,-7.8557,-7.8589,-7.8614,-7.8601,-7.8176,0,0,0,0,0,-7.7482,-7.7653,-7.7631,-7.7668,-7.7856,-7.8009,-7.8032,-7.8034,-7.7961,-7.8043,-7.8076,-7.8028,-7.8321,-7.8232,-7.8267,-7.8378,-7.8669,-7.8686,-7.8701,-7.8814,-7.8848,-7.8876,0,0,0,0,0,0,-7.7497,-7.7543,-7.7626,-7.7709,-7.7751,-7.8003,-7.788,-7.7885,-7.7953,-7.7942,-7.8024,-7.8031,-7.8032,-7.8214,-7.8246,-7.8351,-7.8165,-7.8675,-7.869,-7.8702,-7.8825,-7.8853,-7.8877,0,0,0,0,0,-7.7509,-7.7546,-7.7848,-7.7706,-7.7743,-7.7786,-7.7874,-7.7877,-7.7929,-7.7979,-7.7985,-7.7924,-7.8035,-7.8061,-7.8233,-7.8337,-7.8143,-7.8155,-7.8685,-7.8696,-7.8706,-7.8839,0,0,0,0,0,0,-7.7518,-7.7548,-7.7855,-7.7867,-7.7642,-7.7772,-7.7792,-7.787,-7.7962,-7.797,-7.7878,-7.7868,-7.8039,-7.8059,-7.8079,-7.8332,-7.8125,-7.8137,-7.8145,-7.8693,-7.8702,-7.871,0,0,0,0,0,0,-7.7528,-7.7558,-7.7861,-7.778,-7.7782,-7.7759,-7.7777,-7.7922,-7.7963,-7.7855,-7.785,-7.7873,-7.8007,-7.8058,-7.8074,-7.8299,-7.8112,-7.8123,-7.8131,-7.8136,-7.87,-7.8707,0,0,0,0,0,0,-7.7541,-7.7566,-7.7777,-7.7779,-7.778,-7.7904,-7.7886,-7.8077,-7.7898,-7.7851,-7.7882,-7.7874,-7.8007,-7.8023,-7.807,-7.829,-7.8297,-7.8112,-7.812,-7.8125,-7.8129,0,0,0,0,0,0,0,-7.7551,-7.7381,-7.7791,-7.7777,-7.7778,-7.7969,-7.7972,-7.7975,-7.7897,-7.789,-7.7884,-7.7877,-7.8046,-7.8059,-7.8071,-7.8282,0,0,-7.8111,-7.8116,0,0,0,0,0,0,0,0,-7.737,-7.7378,-7.7791,-7.7793,-7.7796,-7.7969,-7.7972,-7.7974,-7.7896,-7.789,-7.7885,-7.788,-7.805,-7.806,-7.807,0,0,0,0,0,0,0,0,0,0,0,0,0,0,0,-7.7791,-7.7793,0,-7.797,-7.7972,-7.7974,-7.7895,-7.789,-7.7886,-7.7882,-7.8052,-7.8061,-7.8069,0,0,0,0,0,0,0,0,0,0,0,0,0,0,0,0,0,0,0,0,0,0,0,0,0,0,0,0,0,0,0,0,0,0,0,0,0,0,0,0,0,0,0,0,0,0,0,0,0,0,0,0,0,0,0,0,0,0,0,0,0,0,0,0,0,0,0,0,0]}]]]